Precipitable_Water
1.21 1.17 1.13 1.08 1.10 1.13 1.09 1.04 0.97 0.91 0.85 0.83 0.79 0.71 0.67 0.64 0.56 0.49 0.33 0.46 0.54 0.63 0.56 0.50 0.50 0.51 0.55 0.52 0.53 0.50 0.33 0.28 0.33 0.35 0.37 0.45 0.41 0.46 0.51 0.46 0.45 0.47 0.46 0.50 0.56
1.12 1.08 0.97 0.88 0.83 0.82 0.82 0.77 0.70 0.67 0.66 0.65 0.66 0.65 0.61 0.61 0.41 0.29 0.45 0.65 0.59 0.48 0.50 0.53 0.53 0.52 0.42 0.45 0.46 0.40 0.31 0.29 0.38 0.40 0.38 0.42 0.42 0.44 0.43 0.44 0.42 0.42 0.45 0.51 0.56
1.06 0.97 0.85 0.78 0.73 0.69 0.66 0.61 0.56 0.61 0.63 0.65 0.66 0.66 0.59 0.57 0.30 0.39 0.57 0.51 0.55 0.57 0.55 0.52 0.49 0.41 0.29 0.35 0.38 0.37 0.28 0.36 0.37 0.42 0.43 0.38 0.38 0.43 0.38 0.37 0.42 0.40 0.39 0.41 0.44
0.98 0.87 0.72 0.64 0.60 0.58 0.54 0.54 0.55 0.57 0.66 0.67 0.68 0.66 0.59 0.48 0.14 0.45 0.51 0.61 0.63 0.58 0.51 0.42 0.40 0.33 0.30 0.27 0.34 0.28 0.33 0.34 0.35 0.39 0.37 0.35 0.38 0.35 0.37 0.36 0.40 0.43 0.44 0.43 0.41
0.79 0.68 0.58 0.54 0.51 0.49 0.49 0.51 0.55 0.56 0.67 0.68 0.69 0.64 0.54 0.33 0.26 0.44 0.58 0.64 0.52 0.46 0.47 0.45 0.40 0.36 0.30 0.31 0.32 0.29 0.30 0.33 0.37 0.38 0.38 0.37 0.31 0.33 0.35 0.42 0.43 0.42 0.43 0.43 0.45
0.62 0.57 0.54 0.51 0.51 0.50 0.51 0.53 0.56 0.62 0.67 0.74 0.69 0.66 0.48 0.23 0.43 0.50 0.54 0.53 0.55 0.50 0.45 0.44 0.37 0.41 0.36 0.34 0.31 0.33 0.31 0.30 0.32 0.33 0.33 0.29 0.26 0.32 0.33 0.38 0.35 0.38 0.38 0.40 0.40
0.56 0.57 0.56 0.54 0.54 0.56 0.56 0.54 0.62 0.63 0.67 0.73 0.70 0.61 0.46 0.27 0.44 0.48 0.52 0.54 0.56 0.51 0.39 0.45 0.45 0.41 0.41 0.33 0.38 0.34 0.25 0.28 0.29 0.28 0.29 0.31 0.18 0.23 0.30 0.35 0.34 0.36 0.38 0.40 0.39
0.56 0.54 0.54 0.55 0.59 0.61 0.58 0.61 0.67 0.64 0.66 0.73 0.71 0.61 0.36 0.47 0.55 0.49 0.53 0.48 0.57 0.59 0.52 0.53 0.52 0.43 0.40 0.41 0.33 0.26 0.25 0.15 0.24 0.26 0.26 0.29 0.12 0.30 0.39 0.39 0.38 0.43 0.43 0.44 0.43
0.58 0.61 0.58 0.57 0.61 0.63 0.66 0.66 0.65 0.65 0.70 0.71 0.59 0.56 0.33 0.56 0.44 0.49 0.51 0.40 0.45 0.52 0.53 0.56 0.50 0.40 0.38 0.28 0.24 0.26 0.14 0.15 0.22 0.30 0.31 0.32 0.20 0.32 0.39 0.38 0.38 0.42 0.45 0.48 0.48
0.54 0.57 0.57 0.58 0.61 0.67 0.67 0.68 0.67 0.66 0.66 0.68 0.65 0.45 0.44 0.36 0.44 0.52 0.54 0.49 0.44 0.46 0.45 0.43 0.39 0.32 0.29 0.24 0.11 0.13 0.15 0.17 0.19 0.27 0.31 0.29 0.22 0.25 0.31 0.33 0.34 0.35 0.43 0.49 0.51
0.52 0.54 0.52 0.51 0.58 0.66 0.64 0.56 0.42 0.42 0.51 0.32 0.34 0.35 0.35 0.47 0.57 0.54 0.53 0.47 0.47 0.43 0.30 0.39 0.30 0.22 0.20 0.24 0.22 0.22 0.22 0.19 0.24 0.30 0.27 0.27 0.23 0.24 0.28 0.32 0.28 0.26 0.33 0.49 0.59
0.51 0.50 0.49 0.53 0.60 0.68 0.66 0.44 0.43 0.53 0.33 0.45 0.40 0.43 0.40 0.43 0.40 0.48 0.53 0.39 0.36 0.27 0.34 0.31 0.23 0.28 0.32 0.31 0.29 0.28 0.25 0.23 0.23 0.29 0.31 0.28 0.23 0.26 0.25 0.27 0.26 0.24 0.28 0.57 0.71
0.49 0.48 0.49 0.57 0.66 0.70 0.56 0.50 0.65 0.68 0.38 0.40 0.39 0.37 0.38 0.39 0.31 0.38 0.45 0.40 0.34 0.31 0.29 0.23 0.25 0.32 0.32 0.31 0.28 0.28 0.26 0.25 0.24 0.29 0.32 0.31 0.21 0.19 0.24 0.25 0.29 0.31 0.31 0.55 0.65
0.48 0.47 0.47 0.61 0.58 0.61 0.52 0.63 0.70 0.74 0.26 0.24 0.31 0.35 0.41 0.43 0.31 0.38 0.44 0.40 0.37 0.28 0.30 0.31 0.36 0.31 0.29 0.29 0.31 0.24 0.35 0.33 0.31 0.27 0.19 0.34 0.17 0.13 0.20 0.23 0.30 0.36 0.41 0.52 0.65
0.46 0.46 0.51 0.64 0.56 0.49 0.58 0.68 0.75 0.60 0.13 0.22 0.29 0.51 0.46 0.33 0.36 0.37 0.46 0.40 0.28 0.27 0.29 0.25 0.29 0.30 0.31 0.31 0.37 0.31 0.39 0.35 0.33 0.29 0.27 0.24 0.22 0.14 0.23 0.24 0.34 0.44 0.51 0.58 0.65
0.47 0.49 0.55 0.55 0.63 0.59 0.73 0.73 0.66 0.25 0.11 0.16 0.31 0.33 0.35 0.34 0.36 0.38 0.39 0.46 0.39 0.33 0.36 0.33 0.39 0.37 0.36 0.42 0.43 0.44 0.38 0.36 0.34 0.30 0.17 0.20 0.22 0.14 0.23 0.34 0.46 0.58 0.61 0.63 0.65
0.49 0.49 0.53 0.56 0.41 0.68 0.75 0.59 0.31 0.16 0.21 0.18 0.21 0.31 0.29 0.27 0.32 0.36 0.33 0.33 0.27 0.24 0.23 0.29 0.29 0.39 0.44 0.38 0.44 0.42 0.35 0.23 0.19 0.17 0.13 0.23 0.22 0.23 0.43 0.49 0.53 0.56 0.61 0.64 0.67
0.52 0.54 0.57 0.56 0.62 0.72 0.68 0.43 0.19 0.20 0.17 0.22 0.24 0.29 0.26 0.31 0.32 0.35 0.33 0.29 0.35 0.31 0.26 0.23 0.19 0.32 0.41 0.37 0.34 0.36 0.34 0.24 0.15 0.14 0.16 0.25 0.18 0.28 0.46 0.52 0.59 0.63 0.64 0.62 0.64
0.59 0.53 0.55 0.64 0.68 0.74 0.48 0.29 0.21 0.22 0.25 0.22 0.20 0.22 0.23 0.29 0.30 0.31 0.31 0.29 0.32 0.36 0.28 0.28 0.27 0.39 0.40 0.42 0.42 0.36 0.30 0.37 0.28 0.27 0.20 0.20 0.29 0.43 0.47 0.50 0.54 0.54 0.56 0.58 0.64
0.52 0.47 0.46 0.66 0.74 0.68 0.43 0.34 0.29 0.29 0.29 0.34 0.25 0.26 0.19 0.22 0.26 0.28 0.30 0.37 0.35 0.38 0.44 0.37 0.27 0.38 0.40 0.46 0.45 0.41 0.42 0.28 0.29 0.18 0.15 0.20 0.25 0.27 0.37 0.45 0.51 0.51 0.53 0.55 0.60
0.51 0.35 0.48 0.68 0.67 0.51 0.35 0.30 0.34 0.36 0.36 0.29 0.28 0.30 0.29 0.27 0.28 0.28 0.30 0.36 0.42 0.40 0.44 0.43 0.37 0.33 0.39 0.36 0.32 0.37 0.33 0.35 0.34 0.29 0.19 0.16 0.22 0.41 0.42 0.47 0.48 0.52 0.56 0.56 0.57
0.49 0.29 0.52 0.66 0.39 0.41 0.33 0.30 0.36 0.35 0.41 0.38 0.39 0.34 0.32 0.34 0.32 0.32 0.31 0.34 0.43 0.42 0.39 0.46 0.39 0.28 0.30 0.42 0.44 0.40 0.35 0.35 0.27 0.24 0.28 0.25 0.26 0.46 0.46 0.51 0.48 0.47 0.52 0.53 0.53
0.40 0.41 0.58 0.57 0.22 0.24 0.32 0.36 0.39 0.37 0.37 0.33 0.34 0.39 0.41 0.34 0.31 0.34 0.36 0.45 0.46 0.44 0.40 0.41 0.34 0.24 0.32 0.37 0.41 0.35 0.35 0.36 0.37 0.36 0.26 0.21 0.24 0.47 0.48 0.47 0.45 0.44 0.45 0.45 0.44
0.41 0.30 0.40 0.44 0.38 0.31 0.31 0.34 0.34 0.41 0.35 0.40 0.39 0.41 0.36 0.30 0.35 0.32 0.32 0.42 0.48 0.46 0.47 0.46 0.35 0.31 0.26 0.30 0.34 0.30 0.32 0.34 0.34 0.28 0.25 0.24 0.28 0.37 0.40 0.40 0.42 0.42 0.43 0.41 0.40
0.41 0.32 0.34 0.27 0.30 0.31 0.29 0.27 0.25 0.26 0.40 0.42 0.41 0.38 0.30 0.28 0.31 0.33 0.38 0.40 0.41 0.40 0.36 0.36 0.27 0.34 0.35 0.35 0.33 0.29 0.26 0.28 0.30 0.31 0.25 0.25 0.27 0.35 0.39 0.39 0.40 0.42 0.41 0.38 0.35
0.33 0.33 0.40 0.35 0.35 0.32 0.33 0.28 0.25 0.29 0.31 0.35 0.30 0.36 0.37 0.29 0.29 0.29 0.36 0.38 0.32 0.32 0.33 0.38 0.29 0.34 0.31 0.34 0.30 0.25 0.27 0.24 0.26 0.27 0.29 0.28 0.28 0.39 0.41 0.42 0.40 0.38 0.35 0.31 0.31
0.44 0.45 0.43 0.34 0.33 0.30 0.26 0.26 0.27 0.34 0.34 0.33 0.34 0.37 0.36 0.34 0.39 0.38 0.38 0.38 0.36 0.32 0.33 0.34 0.32 0.30 0.25 0.35 0.33 0.23 0.23 0.27 0.27 0.29 0.29 0.22 0.27 0.35 0.35 0.34 0.32 0.32 0.31 0.29 0.29
Wind_Speed
31 31 31 31 30 30 29 29 28 28 28 28 28 28 28 26 26 23 21 18 17 16 14 13 12 12 11 12 12 13 12 13 15 14 15 19 19 18 21 19 19 17 18 19 20
32 32 32 31 31 30 29 29 29 29 29 29 28 28 27 25 23 23 21 15 13 12 12 13 14 14 13 15 14 14 14 16 16 17 20 22 22 22 22 23 21 21 21 20 22
34 33 32 31 30 30 30 30 29 29 29 28 27 26 25 23 20 16 12 13 14 16 17 18 18 17 17 16 17 18 20 20 21 23 23 24 26 24 22 23 23 24 24 24 23
34 34 33 32 31 31 30 30 29 29 27 27 27 25 24 20 17 17 17 18 19 20 21 21 19 19 18 18 19 22 23 24 24 23 24 26 27 27 25 26 26 28 29 29 29
34 34 33 32 32 31 30 30 30 29 29 27 26 25 23 20 23 24 24 25 26 24 21 21 21 21 21 21 22 24 24 25 27 29 29 31 33 33 34 32 31 32 33 34 34
34 33 33 32 31 31 31 31 30 30 30 28 27 26 24 23 23 23 23 23 24 23 23 23 23 24 25 24 24 26 29 29 27 28 30 34 37 33 33 34 37 36 37 38 37
33 32 32 32 31 31 31 31 31 32 30 28 27 28 28 29 26 28 30 28 27 25 24 24 24 24 25 26 26 28 30 31 29 28 30 34 45 34 35 36 39 39 39 38 37
32 32 31 31 32 31 32 32 31 30 29 28 28 29 31 30 32 31 30 30 28 28 27 27 25 26 27 27 28 29 30 27 24 26 29 28 46 32 34 33 36 37 38 39 39
32 33 32 31 31 31 31 30 30 29 28 28 28 29 32 26 27 26 26 25 25 27 28 27 26 26 26 25 26 26 29 30 29 27 27 27 40 30 37 39 42 41 41 41 40
31 31 31 31 31 31 30 29 27 27 28 29 31 30 29 25 26 26 24 25 24 24 23 24 24 24 23 21 25 25 28 29 28 30 28 32 44 45 40 41 44 44 42 41 39
32 32 32 32 32 30 28 27 27 28 31 30 29 31 30 30 30 29 25 23 23 23 23 23 24 26 26 26 27 26 29 35 34 31 33 35 43 43 43 42 44 43 42 38 28
33 33 32 32 32 30 29 28 28 29 34 36 38 39 36 31 30 29 25 23 22 23 22 23 30 28 27 27 30 30 33 36 38 32 31 34 42 45 45 42 40 39 37 28 24
34 33 33 32 32 31 30 29 28 29 33 35 35 36 34 34 35 32 27 25 24 24 24 26 24 22 26 27 30 31 33 34 34 30 29 34 37 40 39 38 36 35 35 28 30
34 34 33 32 30 30 29 29 28 27 28 32 30 31 28 27 29 32 31 26 26 27 25 29 31 30 29 28 27 30 25 25 26 27 29 25 33 42 33 32 30 29 22 21 24
35 34 34 33 32 30 28 28 25 23 22 23 23 22 20 20 19 18 23 26 30 26 23 25 22 24 29 30 24 25 23 23 24 25 26 24 23 31 33 29 23 19 16 18 22
37 36 36 35 34 30 27 25 23 20 28 23 22 22 20 22 21 18 19 22 24 26 29 30 27 26 27 24 23 23 22 22 22 20 22 19 18 23 21 19 16 10 9 16 19
38 37 38 35 34 31 28 25 23 26 26 26 25 24 25 24 24 22 21 24 20 19 24 24 26 26 24 22 22 21 20 20 19 17 18 16 16 19 23 21 23 14 9 12 16
37 35 36 36 34 32 29 28 28 32 32 22 21 22 26 23 27 26 23 24 25 22 20 21 21 19 21 23 21 19 18 16 18 15 16 17 14 15 15 18 15 3 7 13 13
36 35 34 35 34 34 31 32 33 30 27 30 32 27 27 27 26 26 28 28 25 24 22 19 20 19 19 18 17 16 17 16 17 17 15 14 10 10 12 9 6 4 1 6 13
35 34 35 35 35 34 35 34 35 34 29 25 25 25 27 27 24 24 23 23 27 25 22 22 22 21 18 16 17 16 14 12 12 13 13 12 8 9 7 4 1 2 2 2 10
34 33 33 34 34 34 34 36 37 35 30 31 29 26 24 23 21 23 24 23 21 20 23 21 20 21 18 20 16 15 16 13 12 13 12 12 11 10 12 8 4 4 2 2 4
34 33 32 33 33 34 36 37 37 32 34 35 28 29 27 25 23 23 24 23 21 20 20 21 19 23 24 19 18 18 17 18 14 13 13 11 12 11 12 12 9 7 6 6 5
34 33 31 33 34 38 35 36 35 32 34 31 34 30 28 26 24 26 25 23 22 21 20 19 19 18 16 17 17 18 17 18 18 14 15 13 13 15 10 9 8 9 9 10 11
33 30 32 33 34 34 34 33 35 35 35 32 32 31 28 28 27 24 23 22 21 21 20 20 20 19 19 16 15 17 20 19 17 16 15 16 14 15 12 12 11 11 12 14 15
33 32 32 30 34 34 31 32 38 33 34 31 30 33 31 27 26 25 22 21 22 22 20 20 20 21 21 17 16 16 15 19 22 22 17 16 13 13 13 13 13 14 15 16 17
32 30 29 29 30 34 31 31 35 33 34 29 30 31 28 27 25 25 23 23 22 22 20 20 18 18 20 22 18 17 17 14 16 14 12 11 11 13 13 13 15 17 17 18 20
35 34 27 27 27 27 31 34 31 30 30 34 32 29 25 23 23 22 22 22 22 19 19 18 17 17 18 19 19 19 17 15 14 13 15 16 16 16 15 15 16 16 17 18 19
Wind_Direction
272 273 275 276 276 277 278 279 281 282 283 285 287 290 292 293 293 290 285 280 278 277 278 280 278 279 276 273 266 264 269 268 269 271 265 275 272 267 277 278 281 284 277 273 266
272 273 274 274 275 275 276 278 280 281 282 283 285 288 290 292 290 286 280 271 270 270 275 278 278 282 275 271 272 264 264 267 266 273 276 278 274 272 276 279 274 279 281 280 274
271 272 273 273 273 274 274 277 279 280 280 281 283 285 287 289 287 277 266 265 272 275 276 276 277 275 272 269 268 267 266 271 274 277 277 278 277 276 271 270 272 274 276 279 281
269 270 271 271 272 273 274 275 277 279 277 279 280 281 284 282 276 274 266 270 276 279 277 275 273 271 270 270 269 274 272 274 277 279 281 280 279 276 271 272 274 273 274 273 273
267 267 268 270 272 272 272 273 275 277 276 276 276 277 279 276 272 272 270 273 276 275 273 270 271 271 269 273 278 273 275 277 280 281 279 279 276 276 275 276 275 276 275 274 271
266 265 267 269 270 270 271 273 273 277 275 271 273 274 274 275 274 274 272 274 271 271 271 270 269 268 273 273 274 277 280 281 282 283 281 278 276 276 277 280 278 276 276 275 272
263 264 266 267 268 269 271 272 273 275 271 267 271 272 272 272 274 274 272 273 271 268 269 271 269 269 276 278 275 279 283 283 280 278 277 281 277 274 281 279 278 279 278 277 273
262 264 265 267 268 269 269 272 272 271 267 265 270 273 272 276 277 274 269 270 266 264 266 268 271 272 272 274 280 281 280 281 277 283 280 277 277 280 283 285 283 282 282 282 275
262 264 265 266 267 268 269 270 269 268 265 265 270 272 277 276 275 274 266 268 267 267 266 267 267 269 271 276 280 276 276 276 285 278 285 279 281 279 288 285 284 284 283 283 281
261 264 265 265 267 267 267 267 267 265 264 267 269 275 272 272 273 272 268 265 268 267 268 265 266 266 272 270 271 272 276 278 280 286 285 285 282 285 286 285 285 284 283 282 279
262 263 264 265 266 264 262 264 266 267 263 261 264 268 274 278 273 268 266 266 264 264 264 264 264 263 262 264 270 276 277 278 281 283 286 287 284 285 285 286 287 284 281 283 270
261 262 263 264 265 258 260 264 264 269 270 263 265 266 269 272 272 266 262 262 260 262 263 269 264 266 266 267 270 273 276 279 283 285 289 289 285 288 288 288 286 283 279 266 253
260 262 262 263 261 256 259 261 266 273 271 269 265 267 266 261 263 262 258 259 263 259 261 261 267 267 264 266 269 272 274 280 281 289 284 290 289 291 292 289 288 284 276 255 236
259 260 260 261 253 256 260 260 263 269 272 272 268 268 261 260 265 254 253 255 261 262 265 268 265 266 267 269 273 277 282 286 288 292 289 294 295 296 295 298 293 286 272 237 233
258 259 257 252 257 256 260 255 257 263 271 268 262 262 257 252 269 264 245 250 255 261 259 267 274 267 266 269 270 276 278 282 284 286 292 287 288 293 309 306 303 290 254 233 224
258 258 256 253 253 256 253 248 249 255 260 267 259 256 256 259 267 261 257 255 259 259 263 267 270 267 270 269 269 271 279 281 284 283 284 286 278 299 312 308 310 305 268 223 222
258 257 253 249 252 246 244 241 250 251 264 262 257 255 255 257 261 258 254 251 258 261 264 271 266 266 264 266 268 271 277 282 283 276 278 294 290 295 313 314 296 261 250 237 215
257 257 251 248 247 238 238 242 248 256 254 262 263 261 254 255 258 255 258 259 261 262 265 264 276 259 262 258 261 264 260 262 268 274 285 292 286 305 322 329 341 244 216 203 209
254 252 249 246 241 236 236 239 247 254 258 256 262 263 260 255 255 252 254 255 255 252 254 262 267 268 263 264 255 261 261 261 269 272 283 279 284 313 320 341 11 43 128 191 201
251 249 248 243 236 236 237 242 248 250 257 262 258 254 255 255 251 249 249 263 256 252 252 258 264 265 267 262 260 252 249 258 258 264 270 276 280 277 280 301 1 51 83 213 204
248 249 247 240 232 236 236 244 248 248 251 252 255 256 255 256 251 248 249 257 257 261 251 253 258 269 256 252 247 246 248 251 249 260 271 278 266 268 264 247 250 271 225 87 117
245 246 244 234 234 238 240 243 246 249 247 250 254 251 251 248 252 251 247 250 253 253 253 261 259 260 254 251 244 242 242 237 251 260 263 267 262 253 256 248 248 263 280 290 311
242 243 241 236 237 240 245 242 246 246 244 250 245 247 246 245 250 251 252 251 247 252 252 250 257 260 246 254 246 237 244 245 245 255 255 256 257 243 260 231 256 275 291 297 298
238 240 240 239 241 241 240 242 241 245 249 249 249 244 244 246 247 246 245 248 246 248 247 247 251 250 246 238 239 243 247 246 240 247 254 253 250 245 235 249 266 277 285 293 298
235 239 239 239 240 239 238 244 241 244 243 246 245 242 238 240 238 241 242 244 248 245 248 246 248 244 249 247 249 248 252 248 240 242 249 254 242 235 246 255 269 279 286 291 294
230 231 236 239 236 235 236 240 241 240 238 239 240 248 234 231 235 237 236 243 247 247 245 245 247 250 250 250 250 250 251 250 243 249 252 225 239 240 247 259 271 276 282 289 294
229 231 236 235 232 232 237 240 244 239 241 236 231 231 230 229 235 240 241 240 242 241 239 236 241 243 247 237 250 257 248 240 241 253 242 245 250 246 255 266 272 277 282 287 292